Zurück zum Katalog

FENGYUN 1C DEB

AktivPO
NORAD 32137·DEBRIS·🇨🇳 China

Gestartet May 10, 1999 von Taiyuan Satellite Launch Center

Loading…

Nächste Überflüge (nächste 24 Stunden)

TLE

AktuellSource: Space-Track

Epoche: Sep 12, 2026, 04:28 UTC

1 32137U 99025CSF 26255.18612931  .00006999  00000-0  60986-3 0  9997
2 32137  98.4757  44.0048 0170886 233.1149 125.4299 14.86631854707878

Verfolge FENGYUN 1C DEB in Echtzeit mit AllMySat

Download on the App Store